[[{"header":{"parameterUnit":"m.s-1","parameterCategory":1,"la1":30.2991,"la2":30.254,"lo1":-89.0895,"lo2":-89.0444,"dy":0.0017,"dx":0.0017,"nx":28,"ny":28,"refTime":"2024-12-26T03:00:00:Z","depth":0,"parameterNumber":2,"parameterNumberName":"U-component_of_WINDS"},"data":[0,0,0,0,0,0,0,0,0,0,0,0,0,0,0,0,0,0,0,0,0,0,0,0,0,0,0,0,0,0,0,0,0,0,0,0,0,0,0,0,0,0,0,0,0,0,0,0,0,0,0,0,0,0,0,0,0,0,-7.4334,-7.4334,0,-7.435,-7.435,-7.435,-7.4221,-7.4217,-7.4214,-7.421,-7.4224,-7.4228,-7.4231,0,0,0,0,0,0,0,0,0,0,0,0,0,-7.4191,-7.4194,-7.4334,-7.4334,-7.4335,-7.435,-7.435,-7.4351,-7.4221,-7.4217,-7.4213,-7.4208,-7.4223,-7.4227,-7.4232,0,0,0,0,0,0,0,0,0,0,0,0,0,-7.4235,-7.4195,-7.4334,-7.4272,-7.4267,-7.435,-7.435,-7.4351,-7.4222,-7.4217,-7.4211,-7.4206,-7.4221,-7.4227,-7.4232,-7.4375,0,0,-7.425,-7.4252,0,0,0,0,0,0,0,0,-7.4232,-7.424,-7.4281,-7.4277,-7.4271,-7.4278,-7.4305,-7.4359,-7.4224,-7.4239,-7.421,-7.4204,-7.4246,-7.4249,-7.4264,-7.4376,-7.4377,-7.425,-7.4253,-7.4256,-7.4257,0,0,0,0,0,0,0,-7.4229,-7.4239,-7.434,-7.4282,-7.4275,-7.4243,-7.4243,-7.4314,-7.4273,-7.4237,-7.4228,-7.4232,-7.4242,-7.4259,-7.4264,-7.4377,-7.425,-7.4255,-7.4258,-7.4261,-7.4607,-7.4612,0,0,0,0,0,0,-7.4235,-7.4237,-7.434,-7.4341,-7.4238,-7.425,-7.425,-7.4281,-7.4272,-7.4265,-7.4236,-7.4226,-7.4252,-7.4257,-7.4264,-7.4429,-7.4256,-7.4261,-7.4264,-7.4601,-7.4608,-7.4614,0,0,0,0,0,0,-7.4232,-7.4245,-7.4339,-7.4286,-7.4296,-7.4258,-7.4294,-7.4284,-7.4301,-7.4271,-7.4263,-7.4261,-7.4248,-7.4256,-7.4349,-7.4428,-7.4264,-7.4269,-7.4594,-7.4603,-7.4611,-7.4762,0,0,0,0,0,0,-7.4229,-7.4245,-7.4299,-7.4289,-7.4299,-7.4424,-7.4299,-7.4288,-7.4311,-7.4297,-7.4292,-7.4286,-7.4245,-7.4341,-7.4354,-7.4432,-7.4273,-7.4587,-7.4598,-7.4608,-7.475,-7.4775,-7.4797,0,0,0,0,0,-7.4224,-7.434,-7.4302,-7.4316,-7.4366,-7.4429,-7.4435,-7.4386,-7.4318,-7.4371,-7.4353,-7.4286,-7.4418,-7.4352,-7.4365,-7.4447,-7.4581,-7.4595,-7.4608,-7.4739,-7.477,-7.4796,0,0,0,0,0,0,-7.4359,-7.4338,-7.4295,-7.4412,-7.4424,-7.4407,-7.4473,-7.442,-7.445,-7.4436,-7.4373,-7.4373,-7.4476,-7.4471,-7.4397,-7.4585,-7.4488,-7.4504,-7.4583,-7.4612,-7.4635,-7.4632,-7.4278,0,0,0,0,0,-7.4403,-7.4457,-7.4435,-7.454,-7.4548,-7.4511,-7.4536,-7.4498,-7.4507,-7.4511,-7.4498,-7.4509,-7.4553,-7.4583,-7.4622,-7.475,-7.4746,-7.4813,-7.4837,-7.4856,-7.4869,-7.4936,-7.4965,-7.4657,-7.4657,-7.4657,0,0,-7.4493,-7.4488,-7.4525,-7.4567,-7.4571,-7.4628,-7.4515,-7.4579,-7.462,-7.452,-7.4606,-7.4599,-7.4607,-7.4718,-7.4767,-7.4717,-7.4955,-7.4873,-7.4888,-7.4891,-7.4953,-7.4982,-7.5008,-7.4666,-7.4665,-7.4663,0,0,-7.4684,-7.4688,-7.4774,-7.4782,-7.4791,-7.4766,-7.4788,-7.478,-7.4771,-7.4858,-7.4784,-7.4833,-7.491,-7.4918,-7.4933,-7.5133,-7.5072,-7.5148,-7.5267,-7.5333,-7.5358,-7.5379,-7.5448,-7.5473,-7.5162,-7.5163,-7.5163,0,-7.4794,-7.4877,-7.4826,-7.4896,-7.4916,-7.4831,-7.4918,-7.4928,-7.4949,-7.4965,-7.491,-7.5006,-7.5005,-7.5117,-7.5166,-7.5182,-7.5203,-7.5145,-7.5359,-7.5379,-7.5398,-7.5463,-7.549,-7.5172,-7.5171,-7.517,-7.5169,0,-7.501,-7.507,-7.5139,-7.5163,-7.5192,-7.527,-7.5231,-7.5266,-7.5227,-7.5208,-7.5297,-7.5295,-7.5331,-7.5356,-7.5317,-7.5463,-7.5432,-7.537,-7.527,-7.5437,-7.5497,-7.5522,-7.5184,-7.5181,-7.5178,-7.5176,0,0,-7.5282,-7.528,-7.5306,-7.5316,-7.5322,-7.5366,-7.5442,-7.5479,-7.551,-7.5529,-7.5589,-7.5659,-7.5601,-7.5618,-7.5581,-7.564,-7.5796,-7.5569,-7.5568,-7.5609,-7.5954,-7.5998,-7.6028,-7.5758,-7.5763,-7.5766,-7.5952,0,-7.5467,-7.5595,-7.5553,-7.5683,-7.5736,-7.5658,-7.5724,-7.5735,-7.572,-7.5763,-7.5746,-7.5795,-7.5717,-7.5727,-7.5782,-7.5765,-7.5864,-7.5752,-7.5811,-7.5814,-7.5807,-7.6059,-7.6105,-7.6281,-7.5976,-7.598,-7.5983,0,-7.5697,-7.5727,-7.5863,-7.5861,-7.5882,-7.5941,-7.5972,-7.6016,-7.6027,-7.6012,-7.6034,-7.5984,-7.6058,-7.5963,-7.6063,-7.5988,-7.6011,-7.6007,-7.6012,-7.6012,-7.5905,-7.6063,-7.6336,-7.6361,-7.6019,-7.6016,-7.6014,0,-7.5878,-7.5953,-7.6043,-7.6055,-7.6056,-7.6099,-7.6102,-7.6108,-7.6134,-7.6162,-7.6177,-7.6214,-7.6233,-7.6263,-7.6225,-7.6159,-7.633,-7.6232,-7.6318,-7.6319,-7.6352,-7.635,-7.6629,-7.6375,-7.6375,-7.6374,-7.6374,0,-7.6086,-7.6171,-7.6124,-7.6179,-7.6273,-7.6226,-7.6319,-7.6313,-7.632,-7.6372,-7.6309,-7.6359,-7.6308,-7.6354,-7.6326,-7.6412,-7.6422,-7.6411,-7.6401,-7.6414,-7.6415,-7.6424,-7.6409,-7.6381,-7.638,-7.6378,-7.6377,0,-7.63,-7.6273,-7.6366,-7.6361,-7.6362,-7.6431,-7.6426,-7.6477,-7.646,-7.6527,-7.654,-7.6513,-7.6563,-7.653,-7.6582,-7.6562,-7.6674,-7.665,-7.667,-7.6662,-7.6749,-7.674,-7.704,-7.7076,-7.6803,-7.6806,-7.6808,0,-7.6432,-7.6496,-7.6499,-7.653,-7.6537,-7.6588,-7.6615,-7.6572,-7.6602,-7.6622,-7.667,-7.6717,-7.675,-7.6836,-7.682,-7.6859,-7.6832,-7.6936,-7.6837,-7.6848,-7.683,-7.6824,-7.683,-7.6953,-7.6957,-7.6959,-7.6961,0,-7.6668,-7.6652,-7.6693,-7.6731,-7.6765,-7.6792,-7.6814,-7.6843,-7.6801,-7.6838,-7.689,-7.6917,-7.6971,-7.7017,-7.705,-7.7052,-7.6999,-7.6994,-7.7015,-7.7025,-7.7033,-7.7027,-7.672,-7.6985,-7.6983,-7.6981,-7.698,-7.6979,-7.6842,-7.6895,-7.6906,-7.6955,-7.6968,-7.6991,-7.7038,-7.7028,-7.7071,-7.7112,-7.7085,-7.7147,-7.7158,-7.7198,-7.7207,-7.7254,-7.7212,-7.7243,-7.7251,-7.7258,-7.7268,-7.7031,-7.7261,-7.726,-7.7259,-7.7259,-7.7258,0,-7.7071,-7.7076,-7.7121,-7.7155,-7.7194,-7.7145,-7.7168,-7.7202,-7.7257,-7.7274,-7.731,-7.737,-7.7415,-7.7405,-7.7446,-7.7486,-7.7463,-7.7497,-7.7491,-7.7492,-7.7305,-7.7281,-7.7515,-7.7515,-7.7515,-7.7515,-7.7515,-7.7515,-7.7195,-7.7282,-7.7268,-7.7362,-7.7365,-7.7426,-7.7443,-7.7463,-7.7476,-7.7547,-7.7584,-7.7579,-7.7584,-7.7626,-7.7665,-7.7661,-7.7677,-7.772,-7.7707,-7.7531,-7.7505,-7.7481,-7.7458,-7.7725,-7.7725,-7.7889,-7.789,-7.7892]},{"header":{"parameterUnit":"m.s-1","parameterCategory":1,"la1":30.2991,"la2":30.254,"lo1":-89.0895,"lo2":-89.0444,"dy":0.0017,"dx":0.0017,"nx":28,"ny":28,"refTime":"2024-12-26T03:00:00:Z","depth":0,"parameterNumber":3,"parameterNumberName":"V-component_of_WINDS"},"data":[0,0,0,0,0,0,0,0,0,0,0,0,0,0,0,0,0,0,0,0,0,0,0,0,0,0,0,0,0,0,0,0,0,0,0,0,0,0,0,0,0,0,0,0,0,0,0,0,0,0,0,0,0,0,0,0,0,0,0.4323,0.4323,0,0.4335,0.4335,0.4335,0.4352,0.4352,0.4352,0.4352,0.4364,0.4364,0.4364,0,0,0,0,0,0,0,0,0,0,0,0,0,0.4317,0.4317,0.4323,0.4323,0.4323,0.4335,0.4335,0.4335,0.4352,0.4352,0.4352,0.4353,0.4364,0.4364,0.4364,0,0,0,0,0,0,0,0,0,0,0,0,0,0.4323,0.4317,0.4323,0.4333,0.4334,0.4335,0.4335,0.4335,0.4351,0.4352,0.4352,0.4353,0.4364,0.4364,0.4364,0.4355,0,0,0.4364,0.4364,0,0,0,0,0,0,0,0,0.4323,0.4323,0.4331,0.4332,0.4334,0.4342,0.4337,0.4342,0.4351,0.4345,0.4352,0.4353,0.4356,0.4357,0.4358,0.4356,0.4356,0.4364,0.4364,0.4364,0.4364,0,0,0,0,0,0,0,0.4322,0.4323,0.4328,0.4332,0.4333,0.4338,0.4339,0.4338,0.4348,0.4345,0.4347,0.4348,0.4357,0.4358,0.4358,0.4357,0.4364,0.4364,0.4364,0.4364,0.4351,0.4351,0,0,0,0,0,0,0.432,0.4323,0.4327,0.4328,0.4329,0.4337,0.4339,0.4339,0.4348,0.435,0.4347,0.4349,0.4358,0.4358,0.4359,0.4351,0.4364,0.4364,0.4364,0.4352,0.4351,0.4351,0,0,0,0,0,0,0.432,0.4321,0.4327,0.4326,0.4327,0.4337,0.4337,0.4339,0.434,0.4349,0.4351,0.4347,0.4358,0.4359,0.4357,0.4352,0.4364,0.4364,0.4352,0.4352,0.4351,0.4335,0,0,0,0,0,0,0.432,0.432,0.4317,0.4326,0.4327,0.4324,0.4337,0.4339,0.434,0.4342,0.4349,0.4351,0.4358,0.4357,0.4357,0.4352,0.4364,0.4353,0.4352,0.4351,0.4336,0.4334,0.4333,0,0,0,0,0,0.432,0.4311,0.4316,0.4317,0.4322,0.4324,0.4325,0.4333,0.434,0.4337,0.4343,0.4351,0.4353,0.4356,0.4357,0.4352,0.4353,0.4352,0.4351,0.4337,0.4335,0.4333,0,0,0,0,0,0,0.4301,0.4312,0.4318,0.4312,0.4317,0.4327,0.4323,0.433,0.4333,0.4334,0.4345,0.4347,0.4344,0.4348,0.4352,0.4346,0.4354,0.4353,0.4343,0.4341,0.4339,0.4338,0.4364,0,0,0,0,0,0.4296,0.4296,0.4306,0.43,0.4302,0.4312,0.4313,0.432,0.4325,0.4327,0.4333,0.4338,0.434,0.4341,0.4343,0.4338,0.434,0.4335,0.4333,0.4331,0.433,0.433,0.4328,0.4348,0.4348,0.4348,0,0,0.4286,0.4292,0.4291,0.4296,0.4301,0.4301,0.4313,0.4313,0.4314,0.4327,0.4326,0.4331,0.4337,0.4334,0.4333,0.4337,0.4326,0.433,0.4329,0.4329,0.4329,0.4327,0.4326,0.4348,0.4348,0.4348,0,0,0.4267,0.4272,0.4268,0.4273,0.428,0.4287,0.4287,0.4296,0.43,0.4299,0.431,0.4311,0.4314,0.4319,0.4321,0.4309,0.4316,0.4309,0.4299,0.4299,0.4297,0.4296,0.4293,0.4291,0.4308,0.4308,0.4308,0,0.4254,0.4255,0.4265,0.4265,0.4268,0.4281,0.4278,0.4282,0.429,0.4292,0.4296,0.4302,0.4307,0.4306,0.4304,0.4305,0.4305,0.4308,0.4297,0.4295,0.4294,0.4291,0.429,0.4307,0.4308,0.4308,0.4308,0,0.4238,0.4239,0.4235,0.4243,0.4246,0.4244,0.4256,0.4257,0.4264,0.4271,0.4272,0.4279,0.4284,0.4284,0.4291,0.4285,0.4288,0.4295,0.4303,0.4292,0.4289,0.4288,0.4306,0.4307,0.4307,0.4307,0,0,0.4206,0.4223,0.4221,0.4226,0.4236,0.4237,0.4237,0.4243,0.4245,0.425,0.4251,0.4254,0.4262,0.4265,0.4272,0.4272,0.4264,0.4279,0.4279,0.4277,0.426,0.4255,0.4253,0.4269,0.4269,0.4269,0.426,0,0.4191,0.4191,0.4203,0.42,0.4202,0.4216,0.4217,0.4224,0.4231,0.4234,0.4242,0.4245,0.4253,0.4256,0.4256,0.4264,0.426,0.4265,0.4271,0.4271,0.4269,0.4252,0.4246,0.4237,0.4259,0.4259,0.4258,0,0.4172,0.4178,0.4176,0.4189,0.419,0.419,0.4198,0.42,0.4209,0.4215,0.422,0.4229,0.4231,0.424,0.4243,0.4246,0.4249,0.4254,0.4254,0.4255,0.4264,0.4253,0.4234,0.4233,0.4257,0.4257,0.4257,0,0.415,0.4158,0.4158,0.4162,0.4177,0.4177,0.4183,0.4192,0.4196,0.4203,0.4205,0.4212,0.4216,0.4221,0.4232,0.4237,0.4235,0.4244,0.4241,0.424,0.4239,0.4239,0.4222,0.4241,0.4241,0.4241,0.4241,0,0.4132,0.413,0.4149,0.4149,0.4149,0.4163,0.4162,0.417,0.4179,0.4181,0.4194,0.4196,0.4211,0.4216,0.4225,0.4227,0.4229,0.4234,0.4236,0.4233,0.4232,0.4235,0.4236,0.424,0.424,0.424,0.4241,0,0.4107,0.412,0.4121,0.4136,0.414,0.4139,0.4152,0.4154,0.4163,0.4166,0.4168,0.4182,0.4188,0.4201,0.421,0.4216,0.4217,0.4221,0.4214,0.4216,0.4212,0.4212,0.4196,0.4195,0.4214,0.4213,0.4213,0,0.4095,0.4094,0.411,0.4113,0.4119,0.4123,0.4128,0.4142,0.4146,0.4158,0.4159,0.4166,0.4173,0.4182,0.4193,0.4201,0.4206,0.42,0.4207,0.4204,0.4207,0.4207,0.4208,0.4198,0.4197,0.4197,0.4197,0,0.4071,0.4078,0.4084,0.4093,0.4098,0.4105,0.4114,0.4116,0.4132,0.4136,0.4143,0.4149,0.4159,0.4167,0.4177,0.4184,0.4194,0.4195,0.4195,0.4191,0.4188,0.4191,0.421,0.4195,0.4195,0.4195,0.4195,0.4196,0.4053,0.4054,0.4066,0.4073,0.4081,0.4089,0.4092,0.4102,0.4109,0.4119,0.4127,0.4134,0.4145,0.416,0.4167,0.4173,0.4177,0.4176,0.4176,0.4176,0.4175,0.4187,0.4174,0.4175,0.4175,0.4175,0.4175,0,0.4031,0.404,0.4047,0.4059,0.4064,0.4074,0.4084,0.4089,0.4095,0.4105,0.4112,0.4121,0.413,0.4143,0.4152,0.4155,0.416,0.4157,0.4157,0.4159,0.417,0.417,0.4153,0.4153,0.4153,0.4153,0.4153,0.4153,0.4021,0.4024,0.4033,0.4041,0.405,0.4057,0.4063,0.4071,0.4079,0.4089,0.4097,0.4105,0.4117,0.4128,0.4137,0.4141,0.4144,0.414,0.4145,0.4155,0.4157,0.4159,0.4159,0.414,0.414,0.4133,0.4133,0.4133]}]]